This is the latest recevied weather packets stored in our database for station/object F4FEB-14. If no packets are shown the sender has not sent any weather packets the latest 10 day(s).
| Time | Temp. | Humidity | Pressure | Rain* | Wind** | Luminosity | Snow |
|---|---|---|---|---|---|---|---|
| 1777739126 | 23.33° C | 38% | 1018.9 hPa | 0 mm | - | - | - |
| 1777738826 | 23.89° C | 37% | 1019 hPa | 0 mm | - | - | - |
| 1777738525 | 23.89° C | 38% | 1019.1 hPa | 0 mm | - | - | - |
| 1777738224 | 23.33° C | 38% | 1019.2 hPa | 0 mm | - | - | - |
| 1777737921 | 23.89° C | 36% | 1019.2 hPa | 0 mm | - | - | - |
| 1777737619 | 23.89° C | 37% | 1019.3 hPa | 0 mm | - | - | - |
| 1777737314 | 23.89° C | 37% | 1019.3 hPa | 0 mm | - | - | - |
| 1777737013 | 23.89° C | 34% | 1019.3 hPa | 0 mm | - | - | - |
| 1777736712 | 25° C | 38% | 1019.3 hPa | 0 mm | - | - | - |
| 1777736108 | 25.56° C | 38% | 1019.4 hPa | 0 mm | - | - | - |
| 1777735807 | 25.56° C | 37% | 1019.4 hPa | 0 mm | - | - | - |
| 1777735200 | 25.56° C | 39% | 1019.4 hPa | 0 mm | - | - | - |
| 1777734899 | 25.56° C | 40% | 1019.6 hPa | 0 mm | - | - | - |
| 1777734597 | 26.11° C | 41% | 1019.5 hPa | 0 mm | - | - | - |
| 1777733991 | 26.11° C | 42% | 1019.7 hPa | 0 mm | - | - | - |
| 1777733689 | 26.67° C | 42% | 1019.8 hPa | 0 mm | - | - | - |
| 1777733388 | 26.67° C | 43% | 1019.8 hPa | 0 mm | - | - | - |
| 1777732782 | 26.11° C | 43% | 1020 hPa | 0 mm | - | - | - |
| 1777732480 | 26.67° C | 44% | 1020 hPa | 0 mm | - | - | - |
| 1777732176 | 26.67° C | 44% | 1020 hPa | 0 mm | - | - | - |
| 1777731874 | 26.11° C | 42% | 1020 hPa | 0 mm | - | - | - |
| 1777731573 | 25.56° C | 43% | 1020.1 hPa | 0 mm | - | - | - |
| 1777731254 | 26.11° C | 42% | 1020.2 hPa | 0 mm | - | - | - |
| 1777730952 | 26.67° C | 41% | 1020.2 hPa | 0 mm | - | - | - |
| 1777730634 | 26.11° C | 41% | 1020.4 hPa | 0 mm | - | - | - |
* Rain latest hour (hover to see other rain measurements)
** Current wind speed in m/s (hover to see current wind gust speed)